Location: Hartford
(41.7640°N, 72.6860°W)
Time: 10:16:26
(UTC-04:00)

Amateur Radio Satellites - All Passes

Search period start: 31 August 2016 09:46
Search period end: 01 September 2016 09:46
Location: Hartford, 41.7640°N, 72.6860°W

Satellite Date Start Highest point End Downlink Frequencies (MHz)
Time Altitude Azimuth
BEESAT 2 31 Aug 09:48:06 09:52:00 63° 304° (NW) 09:55:58 435.950
PCSat 31 Aug 09:52:29 09:55:07 14° 103° (ESE) 09:57:46 145.827
FUNcube-1 31 Aug 09:54:06 09:58:10 54° 100° (E) 10:02:13 145.935
BEESAT 3 31 Aug 09:58:49 10:02:11 27° 312° (NW) 10:05:35 437.485
AAUSAT CUBESAT 2 31 Aug 09:59:17 10:03:16 45° 287° (WNW) 10:07:15 437.432
UNISAT 6 31 Aug 10:09:16 10:13:49 69° 75° (ENE) 10:18:17 437.425
CANX-2 31 Aug 10:11:09 10:13:11 13° 297° (WNW) 10:15:12 2200.000
COMPASS 1 31 Aug 10:11:47 10:15:17 27° 291° (WNW) 10:18:49 437.405
UWE-3 31 Aug 10:12:34 10:16:37 53° 286° (WNW) 10:20:38 435.000/436.395/437.385
CUTE 1.7 + AOD 2 31 Aug 10:16:25 10:18:28 13° 296° (WNW) 10:20:31 437.475
ZACube-1 31 Aug 10:17:52 10:22:01 74° 285° (WNW) 10:26:07 437.345
CUBEBUG 2 31 Aug 10:23:55 10:27:28 27° 291° (WNW) 10:30:57 437.445
DANDE 31 Aug 10:28:16 10:33:59 56° 78° (ENE) 10:41:17 436.750
DUCHIFAT 1 31 Aug 10:28:47 10:31:06 14° 63° (ENE) 10:33:24 145.980
HUMSAT D 31 Aug 10:29:13 10:32:46 28° 96° (E) 10:36:19 437.325/437.525
JAS-2 31 Aug 10:29:13 10:31:09 12° 54° (NE) 10:33:07 435.910
CUSAT 1 31 Aug 10:35:47 10:42:31 62° 264° (W) 10:50:18 437.405
QB50P2 31 Aug 10:36:22 10:39:34 21° 66° (ENE) 10:42:45 145.880/145.840
AIST 1 31 Aug 10:37:25 10:38:59 12° 293° (WNW) 10:40:33
POLYITAN 1 31 Aug 10:38:50 10:42:04 21° 66° (ENE) 10:45:16 437.675
ISS 31 Aug 10:42:19 10:44:18 15° 357° (N) 10:46:15 145.825
NANOSAT C BR1 31 Aug 10:43:31 10:46:47 22° 67° (ENE) 10:50:03 145.865
ANTELSAT 31 Aug 10:46:16 10:50:41 48° 261° (W) 10:55:02 437.575/2403.000
AIST 2 31 Aug 10:56:32 10:59:59 27° 114° (ESE) 11:03:28 435.215
RS-15 31 Aug 10:59:43 11:11:42 60° 247° (WSW) 11:23:26 29.354- 29.394
DELFI C3 31 Aug 11:03:55 11:07:49 50° 287° (WNW) 11:11:42 145.870
BUGSAT 1 31 Aug 11:06:45 11:09:23 16° 64° (ENE) 11:12:01 437.445
HO-68 31 Aug 11:09:57 11:13:57 16° 308° (NW) 11:17:57 435.675
TIGRISAT 31 Aug 11:16:50 11:20:36 25° 265° (W) 11:24:19 435.000
Oscar 11 31 Aug 11:18:10 11:21:07 18° 295° (WNW) 11:24:03 145.826/435.025
GONETS M04 31 Aug 11:19:26 11:27:42 49° 89° (E) 11:36:03
QB50P1 31 Aug 11:28:51 11:33:06 73° 75° (ENE) 11:37:22 145.935-145.965
FUNcube-1 31 Aug 11:31:57 11:33:58 13° 296° (WNW) 11:35:58 145.935
PCSat 31 Aug 11:32:22 11:37:47 80° 300° (WNW) 11:43:15 145.827
Cosmos 2499 31 Aug 11:33:15 11:40:47 46° 90° (E) 11:47:49 435.465 / 435.565
AUBIESAT-1 31 Aug 11:33:46 11:36:29 18° 97° (E) 11:39:04 437.475
POPSAT HIP 1 31 Aug 11:39:15 11:43:31 88° 248° (WSW) 11:47:50 437.405
M-CUBED/EXP-1 PRIME 31 Aug 11:42:32 11:46:02 29° 100° (E) 11:49:17 437.505
UNISAT 6 31 Aug 11:49:27 11:50:57 11° 270° (W) 11:52:25 437.425
UKube-1 31 Aug 11:55:54 11:56:22 10° 90° (E) 11:56:50 .
DUCHIFAT 1 31 Aug 12:02:11 12:06:20 53° 260° (W) 12:10:31 145.980
HUMSAT D 31 Aug 12:05:01 12:08:16 23° 292° (WNW) 12:11:32 437.325/437.525
AO-85 31 Aug 12:05:44 12:08:26 16° 39° (NE) 12:11:00 145.980
AISAT 31 Aug 12:06:21 12:10:16 29° 96° (E) 12:14:09 437.250
JAS-2 31 Aug 12:09:56 12:15:10 84° 74° (ENE) 12:20:53 435.910
QB50P2 31 Aug 12:11:12 12:15:08 35° 262° (W) 12:19:05 145.880/145.840
DANDE 31 Aug 12:11:43 12:16:36 26° 269° (W) 12:22:23 436.750
POLYITAN 1 31 Aug 12:13:43 12:17:38 35° 263° (W) 12:21:34 437.675
ESTCUBE 1 31 Aug 12:14:43 12:19:15 68° 102° (ESE) 12:23:46 437.505/2401.250
NANOSAT C BR1 31 Aug 12:18:28 12:22:19 33° 263° (W) 12:26:11 145.865
50 SAT 31 Aug 12:18:50 12:22:15 36° 98° (E) 12:25:39 437.505
ISS 31 Aug 12:19:02 12:21:40 21° 18° (NNE) 12:24:16 145.825
CUSAT 1 31 Aug 12:22:18 12:23:35 10° 279° (W) 12:24:53 437.405
AIST 2 31 Aug 12:34:43 12:38:22 30° 311° (NW) 12:42:04 435.215
BUGSAT 1 31 Aug 12:40:17 12:44:22 47° 261° (W) 12:48:30 437.445
SPROUT 31 Aug 12:42:29 12:46:26 35° 97° (E) 12:50:20 437.525
CUBEBUG 1 31 Aug 12:44:03 12:48:31 89° 270° (W) 12:52:55 437.445
Oscar 19 31 Aug 12:46:53 12:51:38 38° 69° (ENE) 12:56:24 437.125/150
Gurwin Techsat 1B 31 Aug 12:52:11 12:56:05 21° 63° (ENE) 13:00:00 435.225
VELOX 1 31 Aug 12:52:51 12:57:20 90° 55° (NE) 13:01:47 145.980
DX 1 31 Aug 12:56:02 13:00:26 65° 102° (ESE) 13:04:45 434.975-435.025
AO-7 31 Aug 13:01:37 13:04:23 12° 42° (NE) 13:07:09 29.400- 29.500
AUBIESAT-1 31 Aug 13:07:33 13:11:05 32° 296° (WNW) 13:14:22 437.475
GONETS M04 31 Aug 13:16:44 13:24:41 38° 289° (WNW) 13:32:46
M-CUBED/EXP-1 PRIME 31 Aug 13:17:18 13:20:24 21° 300° (WNW) 13:23:18 437.505
RS-15 31 Aug 13:18:03 13:21:19 11° 268° (W) 13:24:34 29.354- 29.394
PCSat 31 Aug 13:18:53 13:22:04 16° 320° (NW) 13:25:16 145.827
Cosmos 2499 31 Aug 13:26:50 13:33:59 35° 287° (WNW) 13:40:43 435.465 / 435.565
UKube-1 31 Aug 13:28:33 13:32:53 71° 286° (WNW) 13:37:11 .
O/OREOS (USA 219) 31 Aug 13:32:24 13:36:54 84° 292° (WNW) 13:41:28 437.305
AISAT 31 Aug 13:42:55 13:46:38 26° 293° (WNW) 13:50:19 437.250
AO-85 31 Aug 13:45:10 13:49:24 68° 239° (WSW) 13:53:19 145.980
ESTCUBE 1 31 Aug 13:53:20 13:55:29 13° 298° (WNW) 13:57:39 437.505/2401.250
50 SAT 31 Aug 13:53:24 13:55:31 15° 294° (WNW) 13:57:37 437.505
ISS 31 Aug 13:55:10 13:58:28 84° 217° (SW) 14:01:44 145.825
JAS-2 31 Aug 13:59:51 14:01:14 11° 275° (W) 14:02:37 435.910
ITAMSAT 1 31 Aug 14:10:26 14:15:00 33° 67° (ENE) 14:19:34 435.822/435.867
SWISSCUBE 31 Aug 14:18:17 14:21:36 19° 93° (E) 14:24:56 437.505
SPROUT 31 Aug 14:18:57 14:22:08 21° 294° (WNW) 14:25:18 437.525
TISAT 1 31 Aug 14:21:44 14:25:58 84° 282° (WNW) 14:30:07 437.305
Oscar 19 31 Aug 14:26:42 14:31:01 27° 265° (W) 14:35:22 437.125/150
Gurwin Techsat 1B 31 Aug 14:30:28 14:35:38 53° 260° (W) 14:40:51 435.225
DX 1 31 Aug 14:34:02 14:36:04 13° 298° (WNW) 14:38:05 434.975-435.025
BEESAT 31 Aug 14:34:30 14:38:23 24° 95° (E) 14:42:14 436.000
AO-7 31 Aug 14:47:15 14:55:12 51° 63° (ENE) 15:03:09 29.400- 29.500
O/OREOS (USA 219) 31 Aug 15:16:08 15:17:04 11° 312° (NW) 15:18:00 437.305
YUBILEINY 31 Aug 15:18:38 15:23:13 15° 57° (ENE) 15:27:47 435.215
ITUPSAT 1 31 Aug 15:24:10 15:28:58 77° 103° (ESE) 15:33:44 437.325
MOZHAYETS 4 31 Aug 15:47:35 15:51:06 21° 93° (E) 15:54:35
ITAMSAT 1 31 Aug 15:49:51 15:54:25 31° 264° (W) 15:59:01 435.822/435.867
SWISSCUBE 31 Aug 15:55:04 15:59:38 47° 289° (WNW) 16:04:11 437.505
BEESAT 31 Aug 16:11:53 16:16:13 36° 291° (WNW) 16:20:32 436.000
BEESAT 2 31 Aug 16:29:54 16:31:16 11° 38° (NE) 16:32:36 435.950
BEESAT 3 31 Aug 16:37:58 16:41:03 21° 46° (NE) 16:44:07 437.485
AO-7 31 Aug 16:40:31 16:48:07 38° 262° (W) 16:55:45 29.400- 29.500
Cosmos 2504 31 Aug 16:41:39 16:45:15 14° 61° (ENE) 16:48:49 435.465 / 435.565
KKS-1 31 Aug 16:46:42 16:51:09 65° 102° (ESE) 16:55:33 437.445
GOMX 1 31 Aug 16:51:08 16:53:53 14° 59° (ENE) 16:56:40 467.674
Cosmos 2491 31 Aug 16:57:20 17:04:32 30° 83° (E) 17:11:45 435.465 / 435.565
NOAA 18 31 Aug 16:59:37 17:03:07 17° 59° (ENE) 17:06:37 137.9125
ITUPSAT 1 31 Aug 17:04:00 17:06:09 13° 300° (WNW) 17:08:18 437.325
HORYU 2 31 Aug 17:06:48 17:11:15 88° 255° (WSW) 17:15:44 437.375
NOAA 15 31 Aug 17:08:51 17:13:11 27° 65° (ENE) 17:17:32 137.62
STARS 31 Aug 17:10:43 17:15:03 57° 101° (E) 17:19:21 437.465
Cubesat XI-IV 31 Aug 17:11:47 17:15:51 23° 63° (ENE) 17:19:54 437.490
YUBILEINY 31 Aug 17:13:01 17:21:49 73° 81° (E) 17:30:29 435.215
CUBESAT XI-V 31 Aug 17:19:01 17:22:57 26° 94° (E) 17:26:51 437.345
CUTE-I 31 Aug 17:21:45 17:26:11 28° 65° (ENE) 17:30:38 437.470
MOZHAYETS 4 31 Aug 17:24:08 17:28:22 38° 290° (WNW) 17:32:36
BRITE-PL 31 Aug 17:34:26 17:39:23 69° 74° (ENE) 17:44:46 437.365/2234.400
HO-68 31 Aug 18:04:34 18:08:51 17° 53° (NE) 18:13:09 435.675
BEESAT 2 31 Aug 18:05:43 18:09:45 81° 55° (NE) 18:13:45 435.950
DOVE 4 31 Aug 18:11:00 18:15:43 35° 69° (ENE) 18:20:30 437.250
BEESAT 3 31 Aug 18:15:08 18:18:51 39° 244° (WSW) 18:22:33 437.485
LilacSat-2 31 Aug 18:22:25 18:26:15 82° 255° (WSW) 18:30:05 437.200
CINEMA 3 31 Aug 18:22:25 18:24:48 14° 62° (ENE) 18:27:10 145.822/145.860
KKS-1 31 Aug 18:25:03 18:27:09 13° 299° (WNW) 18:29:16 437.445
GOMX 1 31 Aug 18:25:56 18:31:08 84° 258° (WSW) 18:36:37 467.674
Cosmos 2504 31 Aug 18:32:36 18:39:51 84° 83° (E) 18:47:04 435.465 / 435.565
NOAA 18 31 Aug 18:37:38 18:43:10 72° 257° (WSW) 18:48:42 137.9125
PCSat 31 Aug 18:37:53 18:41:14 16° 40° (NE) 18:44:34 145.827
NOAA 15 31 Aug 18:47:49 18:52:44 40° 262° (W) 18:57:43 137.62
STARS 31 Aug 18:48:33 18:50:56 15° 298° (WNW) 18:53:18 437.465
STRAND 1 31 Aug 18:49:18 18:50:57 11° 89° (E) 18:52:35 437.568
Cubesat XI-IV 31 Aug 18:50:24 18:55:34 50° 260° (W) 19:00:45 437.490
Cosmos 2491 31 Aug 18:52:12 19:00:46 59° 282° (WNW) 19:09:27 435.465 / 435.565
CUBESAT XI-V 31 Aug 18:56:07 19:00:20 33° 291° (WNW) 19:04:32 437.345
SEEDS 31 Aug 18:58:13 19:00:05 13° 63° (ENE) 19:01:57 437.485
CUTE-I 31 Aug 19:01:05 19:06:03 39° 262° (W) 19:11:02 437.470
AIST 1 31 Aug 19:04:19 19:07:13 17° 70° (ENE) 19:10:05
YUBILEINY 31 Aug 19:11:12 19:17:40 24° 280° (W) 19:24:08 435.215
BRITE-PL 31 Aug 19:15:44 19:18:29 15° 273° (W) 19:21:20 437.365/2234.400
AAUSAT CUBESAT 2 31 Aug 19:17:13 19:18:22 11° 62° (ENE) 19:19:31 437.432
AIST 2 31 Aug 19:17:16 19:20:37 23° 46° (NE) 19:23:57 435.215
CANX-2 31 Aug 19:26:30 19:30:26 41° 72° (ENE) 19:34:24 2200.000
COMPASS 1 31 Aug 19:27:51 19:30:43 19° 66° (ENE) 19:33:36 437.405
CUTE 1.7 + AOD 2 31 Aug 19:31:42 19:35:38 41° 72° (ENE) 19:39:36 437.475
UWE-3 31 Aug 19:35:36 19:37:36 13° 63° (ENE) 19:39:34 435.000/436.395/437.385
CUBEBUG 2 31 Aug 19:45:31 19:49:14 24° 68° (ENE) 19:52:52 437.445
HO-68 31 Aug 19:48:19 19:55:30 82° 72° (ENE) 20:02:44 435.675
DOVE 4 31 Aug 19:48:47 19:53:22 30° 266° (W) 19:58:03 437.250
CINEMA 3 31 Aug 19:56:17 20:01:19 79° 259° (WSW) 20:06:15 145.822/145.860
GOMX 1 31 Aug 20:09:32 20:10:02 10° 275° (W) 20:10:33 467.674
PCSat 31 Aug 20:20:00 20:25:27 85° 59° (ENE) 20:30:53 145.827
STRAND 1 31 Aug 20:25:35 20:30:43 82° 285° (WNW) 20:35:50 437.568
Cosmos 2504 31 Aug 20:28:14 20:32:10 16° 281° (WNW) 20:36:05 435.465 / 435.565
SEEDS 31 Aug 20:31:11 20:35:17 58° 260° (W) 20:39:24 437.485
Oscar 11 31 Aug 20:36:09 20:40:00 33° 70° (ENE) 20:43:52 145.826/435.025
AIST 1 31 Aug 20:40:52 20:45:02 42° 268° (W) 20:49:09
AAUSAT CUBESAT 2 31 Aug 20:49:12 20:53:16 68° 259° (W) 20:57:23 437.432
FUNcube-1 31 Aug 20:49:29 20:53:39 44° 73° (ENE) 20:57:45 145.935
AIST 2 31 Aug 20:55:18 20:59:15 41° 243° (WSW) 21:03:10 435.215
Cosmos 2491 31 Aug 20:57:09 20:59:49 11° 306° (NW) 21:02:30 435.465 / 435.565
COMPASS 1 31 Aug 21:02:11 21:06:01 37° 263° (W) 21:09:52 437.405
CANX-2 31 Aug 21:03:50 21:06:29 16° 268° (W) 21:09:09 2200.000
CUTE 1.7 + AOD 2 31 Aug 21:08:59 21:11:40 16° 268° (W) 21:14:21 437.475
UWE-3 31 Aug 21:09:01 21:13:32 67° 259° (WSW) 21:17:57 435.000/436.395/437.385
ZACube-1 31 Aug 21:13:18 21:17:43 87° 77° (ENE) 21:22:04 437.345
HUMSAT D 31 Aug 21:21:07 21:24:13 21° 67° (ENE) 21:27:19 437.325/437.525
CUBEBUG 2 31 Aug 21:21:27 21:25:41 34° 263° (W) 21:29:49 437.445
PRISM 31 Aug 21:25:01 21:29:05 48° 100° (E) 21:33:07 437.425
Cosmos 2499 31 Aug 21:25:37 21:28:52 13° 61° (ENE) 21:32:07 435.465 / 435.565
GONETS M04 31 Aug 21:29:39 21:36:38 25° 65° (ENE) 21:43:31
HO-68 31 Aug 21:39:17 21:43:58 18° 270° (W) 21:48:41 435.675
DELFI C3 31 Aug 21:49:29 21:53:25 88° 261° (W) 21:57:24 145.870
UNISAT 6 31 Aug 22:02:31 22:04:31 13° 91° (E) 22:06:29 437.425
O/OREOS (USA 219) 31 Aug 22:03:31 22:07:05 22° 56° (NE) 22:10:39 437.305
PCSat 31 Aug 22:05:45 22:08:04 13° 257° (WSW) 22:10:23 145.827
STRAND 1 31 Aug 22:07:41 22:09:04 11° 302° (WNW) 22:10:26 437.568
Oscar 11 31 Aug 22:12:54 22:16:12 21° 266° (W) 22:19:31 145.826/435.025
AUBIESAT-1 31 Aug 22:18:27 22:22:31 31° 64° (ENE) 22:26:31 437.475
SO-50 31 Aug 22:19:59 22:24:31 40° 116° (ESE) 22:29:02 436.795
FUNcube-1 31 Aug 22:27:15 22:30:05 17° 268° (W) 22:32:54 145.935
M-CUBED/EXP-1 PRIME 31 Aug 22:27:41 22:32:10 46° 67° (ENE) 22:36:38 437.505
ANTELSAT 31 Aug 22:37:48 22:41:38 31° 97° (E) 22:45:26 437.575/2403.000
UKube-1 31 Aug 22:51:16 22:51:50 10° 60° (ENE) 22:52:25 .
HUMSAT D 31 Aug 22:55:56 22:59:40 32° 263° (W) 23:03:22 437.325/437.525
50 SAT 31 Aug 22:57:02 22:59:28 17° 67° (ENE) 23:01:54 437.505
PRISM 31 Aug 23:01:31 23:04:00 15° 296° (WNW) 23:06:28 437.425
AISAT 31 Aug 23:03:55 23:07:43 28° 68° (ENE) 23:11:32 437.250
TIGRISAT 31 Aug 23:07:06 23:11:20 65° 101° (E) 23:15:33 435.000
RS-15 31 Aug 23:13:55 23:22:17 24° 99° (E) 23:30:55 29.354- 29.394
ESTCUBE 1 31 Aug 23:14:13 23:18:38 63° 74° (ENE) 23:23:06 437.505/2401.250
QB50P1 31 Aug 23:15:42 23:16:59 11° 90° (E) 23:18:14 145.935-145.965
Cosmos 2499 31 Aug 23:16:05 23:23:11 81° 82° (E) 23:30:25 435.465 / 435.565
JAS-2 31 Aug 23:19:25 23:22:52 14° 87° (E) 23:26:24 435.910
POPSAT HIP 1 31 Aug 23:25:14 23:27:34 14° 91° (E) 23:29:53 437.405
GONETS M04 31 Aug 23:25:30 23:34:21 75° 266° (W) 23:43:08
PHONESAT 2.4 31 Aug 23:26:55 23:28:40 15° 151° (SSE) 23:30:26 2401.200-2431.200
SPROUT 31 Aug 23:36:15 23:39:57 29° 69° (ENE) 23:43:40 437.525
UNISAT 6 31 Aug 23:37:24 23:41:35 53° 287° (WNW) 23:45:43 437.425
CUBEBUG 1 31 Aug 23:39:47 23:44:11 77° 76° (ENE) 23:48:38 437.445
DANDE 31 Aug 23:40:33 23:43:03 38° 94° (E) 23:45:54 436.750
CUSAT 1 31 Aug 23:41:02 23:44:05 39° 287° (WNW) 23:47:57 437.405
O/OREOS (USA 219) 31 Aug 23:42:20 23:46:40 41° 254° (WSW) 23:50:59 437.305
DUCHIFAT 1 31 Aug 23:46:32 23:49:50 22° 94° (E) 23:53:06 145.980
VELOX 1 31 Aug 23:49:58 23:54:25 81° 74° (ENE) 23:58:55 145.980
DX 1 31 Aug 23:51:29 23:55:44 57° 74° (ENE) 00:00:04 434.975-435.025
AUBIESAT-1 31 Aug 23:52:48 23:56:52 30° 259° (W) 00:00:54 437.475
QB50P2 31 Aug 23:55:38 23:59:30 34° 97° (E) 00:03:19 145.880/145.840
POLYITAN 1 31 Aug 23:58:08 00:02:00 34° 98° (E) 00:05:49 437.675
SO-50 01 Sep 00:00:53 00:05:06 29° 314° (NW) 00:09:18 436.795
NANOSAT C BR1 01 Sep 00:02:16 00:06:09 36° 98° (E) 00:10:00 145.865
M-CUBED/EXP-1 PRIME 01 Sep 00:03:20 00:06:48 20° 262° (W) 00:10:18 437.505
ANTELSAT 01 Sep 00:14:51 00:18:10 22° 293° (WNW) 00:21:29 437.575/2403.000
BUGSAT 1 01 Sep 00:22:19 00:25:37 23° 95° (E) 00:28:52 437.445
UKube-1 01 Sep 00:22:52 00:27:12 83° 257° (WSW) 00:31:34 .
50 SAT 01 Sep 00:29:41 00:32:49 28° 263° (W) 00:36:00 437.505
AISAT 01 Sep 00:40:16 00:44:06 28° 264° (W) 00:47:58 437.250
TIGRISAT 01 Sep 00:45:50 00:47:29 12° 298° (WNW) 00:49:08 435.000
QB50P1 01 Sep 00:48:59 00:53:09 61° 286° (WNW) 00:57:17 145.935-145.965
ESTCUBE 1 01 Sep 00:53:59 00:55:51 12° 270° (W) 00:57:45 437.505/2401.250
ITUPSAT 1 01 Sep 00:57:24 00:58:38 11° 59° (ENE) 00:59:53 437.325
POPSAT HIP 1 01 Sep 00:59:34 01:03:37 47° 287° (WNW) 01:07:38 437.405
Oscar 19 01 Sep 00:59:57 01:02:09 13° 89° (E) 01:04:21 437.125/150
JAS-2 01 Sep 01:01:35 01:08:39 77° 103° (ESE) 01:16:22 435.910
PHONESAT 2.4 01 Sep 01:01:41 01:04:36 47° 166° (SSE) 01:07:30 2401.200-2431.200
Cosmos 2499 01 Sep 01:11:20 01:15:20 16° 280° (W) 01:19:23 435.465 / 435.565
SPROUT 01 Sep 01:12:17 01:15:52 25° 265° (W) 01:19:27 437.525
TISAT 1 01 Sep 01:13:07 01:17:21 73° 75° (ENE) 01:21:35 437.305
RS-15 01 Sep 01:21:25 01:33:00 90° 302° (WNW) 01:45:16 29.354- 29.394
DUCHIFAT 1 01 Sep 01:21:52 01:25:32 30° 291° (WNW) 01:29:11 145.980
SWISSCUBE 01 Sep 01:24:59 01:28:41 23° 65° (ENE) 01:32:24 437.505
GONETS M04 01 Sep 01:25:32 01:29:31 14° 286° (WNW) 01:33:29
DX 1 01 Sep 01:30:14 01:32:18 13° 269° (W) 01:34:23 434.975-435.025
QB50P2 01 Sep 01:31:56 01:35:05 21° 294° (WNW) 01:38:13 145.880/145.840
POLYITAN 1 01 Sep 01:34:27 01:37:34 20° 294° (WNW) 01:40:40 437.675
NANOSAT C BR1 01 Sep 01:38:35 01:41:38 20° 294° (WNW) 01:44:39 145.865
BEESAT 01 Sep 01:41:05 01:45:11 30° 68° (ENE) 01:49:18 436.000
BUGSAT 1 01 Sep 01:57:27 02:00:58 28° 291° (WNW) 02:04:27 437.445
ITAMSAT 1 01 Sep 02:26:00 02:26:34 10° 88° (E) 02:27:08 435.822/435.867
ITUPSAT 1 01 Sep 02:30:58 02:35:44 90° 324° (NW) 02:40:31 437.325
Oscar 19 01 Sep 02:36:49 02:42:03 78° 286° (WNW) 02:47:14 437.125/150
PHONESAT 2.4 01 Sep 02:37:49 02:40:48 69° 185° (S) 02:43:47 2401.200-2431.200
Gurwin Techsat 1B 01 Sep 02:46:11 02:51:27 60° 101° (E) 02:56:41 435.225
JAS-2 01 Sep 02:47:52 02:53:05 23° 299° (WNW) 02:58:38 435.910
MOZHAYETS 4 01 Sep 02:49:56 02:53:23 22° 66° (ENE) 02:56:50
AO-7 01 Sep 02:51:18 02:54:53 13° 87° (E) 02:58:27 29.400- 29.500
SWISSCUBE 01 Sep 03:01:49 03:06:15 39° 262° (W) 03:10:42 437.505
Cosmos 2491 01 Sep 03:07:31 03:12:10 15° 58° (ENE) 03:16:48 435.465 / 435.565
BEESAT 01 Sep 03:18:45 03:22:54 30° 264° (W) 03:27:04 436.000
RS-15 01 Sep 03:36:49 03:47:19 35° 329° (NNW) 03:58:15 29.354- 29.394
KKS-1 01 Sep 03:44:38 03:49:03 62° 73° (ENE) 03:53:30 437.445
AO-85 01 Sep 03:58:32 04:03:28 40° 116° (ESE) 04:08:11 145.980
ITAMSAT 1 01 Sep 04:01:30 04:06:43 89° 112° (ESE) 04:11:55 435.822/435.867
STARS 01 Sep 04:07:15 04:11:32 52° 73° (ENE) 04:15:52 437.465
PHONESAT 2.4 01 Sep 04:14:13 04:16:57 32° 199° (SSW) 04:19:40 2401.200-2431.200
Oscar 19 01 Sep 04:19:18 04:20:28 11° 303° (WNW) 04:21:39 437.125/150
YUBILEINY 01 Sep 04:22:16 04:27:02 16° 75° (ENE) 04:31:46 435.215
CUBESAT XI-V 01 Sep 04:22:41 04:26:29 26° 67° (ENE) 04:30:19 437.345
MOZHAYETS 4 01 Sep 04:26:04 04:30:18 38° 262° (W) 04:34:34
Gurwin Techsat 1B 01 Sep 04:27:17 04:30:54 19° 298° (WNW) 04:34:31 435.225
AO-7 01 Sep 04:40:39 04:48:59 74° 106° (ESE) 04:57:15 29.400- 29.500
HORYU 2 01 Sep 04:58:33 05:01:24 17° 93° (E) 05:04:14 437.375
Cosmos 2491 01 Sep 05:01:56 05:10:47 72° 80° (E) 05:19:37 435.465 / 435.565
Cosmos 2504 01 Sep 05:23:30 05:26:13 12° 76° (ENE) 05:28:53 435.465 / 435.565
KKS-1 01 Sep 05:24:00 05:26:00 13° 269° (W) 05:28:00 437.445
AO-85 01 Sep 05:39:21 05:44:01 32° 312° (NW) 05:48:27 145.980
BRITE-PL 01 Sep 05:39:29 05:44:11 26° 92° (E) 05:48:41 437.365/2234.400
ITAMSAT 1 01 Sep 05:43:15 05:45:25 13° 302° (WNW) 05:47:36 435.822/435.867
STARS 01 Sep 05:45:42 05:48:12 15° 268° (W) 05:50:42 437.465
RS-15 01 Sep 05:55:43 06:05:00 24° 4° (N) 06:14:24 29.354- 29.394
LilacSat-2 01 Sep 05:58:32 05:58:47 10° 90° (E) 05:59:03 437.200
CUBESAT XI-V 01 Sep 05:59:35 06:03:43 32° 264° (W) 06:07:53 437.345
STRAND 1 01 Sep 06:04:36 06:08:06 19° 62° (ENE) 06:11:36 437.568
YUBILEINY 01 Sep 06:13:31 06:22:22 82° 94° (E) 06:31:13 435.215
GOMX 1 01 Sep 06:28:18 06:33:01 31° 94° (E) 06:37:28 467.674
HORYU 2 01 Sep 06:33:58 06:38:11 45° 289° (WNW) 06:42:23 437.375
AO-7 01 Sep 06:34:25 06:41:01 28° 306° (NW) 06:47:37 29.400- 29.500
ISS 01 Sep 06:35:22 06:38:06 25° 135° (SE) 06:40:52 145.825
SO-50 01 Sep 06:51:10 06:55:30 38° 50° (NE) 06:59:43 436.795
NOAA 18 01 Sep 06:59:32 07:04:48 47° 100° (E) 07:10:01 137.9125
Cosmos 2491 01 Sep 07:00:07 07:06:44 25° 280° (W) 07:13:22 435.465 / 435.565
NOAA 15 01 Sep 07:02:08 07:07:28 75° 103° (ESE) 07:12:47 137.62
Cubesat XI-IV 01 Sep 07:07:04 07:12:22 65° 102° (ESE) 07:17:39 437.490
Cosmos 2504 01 Sep 07:09:59 07:18:16 72° 94° (E) 07:25:59 435.465 / 435.565
CUTE-I 01 Sep 07:17:17 07:22:38 81° 105° (ESE) 07:27:57 437.470
BRITE-PL 01 Sep 07:17:24 07:22:48 45° 290° (WNW) 07:28:01 437.365/2234.400
HO-68 01 Sep 07:18:15 07:21:47 14° 88° (E) 07:25:18 435.675
LilacSat-2 01 Sep 07:29:43 07:33:25 54° 286° (WNW) 07:37:05 437.200
STRAND 1 01 Sep 07:41:50 07:46:50 56° 259° (W) 07:51:51 437.568
DOVE 4 01 Sep 07:47:09 07:52:09 82° 102° (ESE) 07:56:47 437.250
CINEMA 3 01 Sep 07:51:53 07:55:24 23° 93° (E) 07:58:48 145.822/145.860
BEESAT 2 01 Sep 07:59:57 08:01:39 12° 109° (ESE) 08:03:22 435.950
BEESAT 3 01 Sep 08:05:48 08:09:11 29° 115° (ESE) 08:12:37 437.485
GOMX 1 01 Sep 08:06:18 08:11:02 33° 292° (WNW) 08:15:32 467.674
RS-15 01 Sep 08:10:42 08:22:12 41° 37° (NE) 08:33:35 29.354- 29.394
ISS 01 Sep 08:11:18 08:14:26 41° 331° (NNW) 08:17:36 145.825
YUBILEINY 01 Sep 08:13:44 08:20:14 22° 297° (WNW) 08:26:47 435.215
PRISM 01 Sep 08:14:36 08:18:21 35° 70° (ENE) 08:22:08 437.425
SEEDS 01 Sep 08:15:13 08:18:31 22° 94° (E) 08:21:49 437.485
CUSAT 1 01 Sep 08:29:36 08:34:47 22° 68° (ENE) 08:40:28 437.405
AAUSAT CUBESAT 2 01 Sep 08:31:57 08:34:51 18° 93° (E) 08:37:45 437.432
SO-50 01 Sep 08:32:03 08:35:46 25° 248° (WSW) 08:39:23 436.795
NOAA 18 01 Sep 08:40:49 08:45:09 25° 297° (WNW) 08:49:27 137.9125
NOAA 15 01 Sep 08:43:31 08:46:37 16° 300° (WNW) 08:49:41 137.62
COMPASS 1 01 Sep 08:44:29 08:48:15 31° 97° (E) 08:52:00 437.405
CANX-2 01 Sep 08:46:31 08:50:47 83° 102° (ESE) 08:55:03 2200.000
Cubesat XI-IV 01 Sep 08:48:26 08:51:55 18° 299° (WNW) 08:55:22 437.490
CUTE 1.7 + AOD 2 01 Sep 08:51:35 08:55:51 82° 102° (ESE) 09:00:06 437.475
UWE-3 01 Sep 08:59:06 09:02:20 22° 94° (E) 09:05:33 435.000/436.395/437.385
CUTE-I 01 Sep 08:59:12 09:01:58 15° 301° (WNW) 09:04:46 437.470
UNISAT 6 01 Sep 09:01:48 09:04:10 14° 63° (ENE) 09:06:31 437.425
ZACube-1 01 Sep 09:02:41 09:05:06 15° 92° (E) 09:07:31 437.345
HO-68 01 Sep 09:03:16 09:10:29 84° 106° (ESE) 09:17:39 435.675
Cosmos 2504 01 Sep 09:06:01 09:12:16 24° 293° (WNW) 09:18:15 435.465 / 435.565
AIST 1 01 Sep 09:09:44 09:14:05 74° 279° (W) 09:18:30
CUBEBUG 2 01 Sep 09:11:45 09:15:47 46° 99° (E) 09:19:46 437.445
DOVE 4 01 Sep 09:27:04 09:29:01 12° 301° (WNW) 09:30:56 437.250
CINEMA 3 01 Sep 09:28:41 09:32:35 31° 291° (WNW) 09:36:20 145.822/145.860
DELFI C3 01 Sep 09:28:45 09:30:10 12° 90° (E) 09:31:35 145.870
BEESAT 2 01 Sep 09:35:05 09:38:59 57° 305° (NW) 09:42:55 435.950
ANTELSAT 01 Sep 09:36:39 09:40:39 31° 69° (ENE) 09:44:34 437.575/2403.000
